Atlantic City, NJ

8:20 PM EDT on May 22, 2017 (GMT -0400)
Atlantic City International

Weather History for KACY - October, 2013

Change the Weather History Date:

Wednesday, October 16, 2013

  Actual Average Record
Temperature  
Mean Temperature 63 °F 56 °F  
Max Temperature 70 °F 67 °F 85 °F (2008)
Min Temperature 56 °F 45 °F 30 °F (1876)
Degree Days  
Heating Degree Days 2 10  
Month to date heating degree days 51 119  
Since 1 July heating degree days 153 181  
Cooling Degree Days 0 0  
Month to date cooling degree days 35 16  
Year to date cooling degree days 1087 1050  
Growing Degree Days 12 (Base 50)    
Moisture  
Dew Point 58 °F    
Average Humidity 87    
Maximum Humidity 100    
Minimum Humidity 73    
Precipitation  
Precipitation T in 0.11 in 3.02 in (1942)
Month to date precipitation 4.14 1.76  
Year to date precipitation 36.74 33.13  
Snow  
Snow 0.00 in 0.00 in 0.00 in ()
Month to date snowfall 0.0 0.0  
Since 1 July snowfall 0.0 0.0  
Since 1 September snowfall 0.0 0.0  
Snow Depth 0.00 in    
Sea Level Pressure  
Sea Level Pressure 30.03 in    
Wind  
Wind Speed 5 mph (ENE)    
Max Wind Speed 10 mph    
Max Gust Speed 14 mph    
Visibility 8 miles    
Events      
T = Trace of Precipitation, MM = Missing Value Source: NWS Daily Summary

Daily Weather History Graph

Daily Weather History Graph

Search for Another Location

Airport or City:

Trip Planner

Search our weather history database for the weather conditions in past years. The results will help you decide how hot, cold, wet, or windy it might be!

Date:

Astronomy

Oct. 16, 2013 Rise Set
Actual Time 7:09 AM EDT 6:17 PM EDT
Civil Twilight 6:42 AM EDT 6:44 PM EDT
Nautical Twilight 6:11 AM EDT 7:15 PM EDT
Astronomical Twilight 5:40 AM EDT 7:46 PM EDT
Moon 4:55 PM EDT (10/16) 4:35 AM EDT (10/16)
Length of Visible Light 12h 02m
Length of Day
11h 07m
Waxing Gibbous, 94% of the Moon is Illuminated
Oct 16
Waxing Gibbous
Oct 18
Full
Oct 26
Last Quarter
Nov 3
New
Nov 10
First Quarter

Hourly Weather History & Observations

Time (EDT) Temp. Dew Point Humidity Pressure Visibility Wind Dir Wind Speed Gust Speed Precip Events Conditions
12:28 AM 55.9 °F 54.0 °F 93% 30.10 in 10.0 mi NNW 3.5 mph - N/A   Mostly Cloudy
12:54 AM 55.0 °F 54.0 °F 96% 30.09 in 10.0 mi North 3.5 mph - N/A   Mostly Cloudy
1:01 AM 55.9 °F 55.0 °F 97% 30.09 in 10.0 mi Calm Calm - N/A   Mostly Cloudy
1:54 AM 55.9 °F 55.9 °F 100% 30.09 in 10.0 mi Calm Calm - N/A   Overcast
2:54 AM 55.9 °F 55.9 °F 100% 30.08 in 8.0 mi Calm Calm - N/A   Overcast
3:54 AM 55.9 °F 55.9 °F 100% 30.06 in 9.0 mi Calm Calm - N/A   Overcast
4:02 AM 55.9 °F 55.9 °F 100% 30.07 in 9.0 mi NNW 4.6 mph - N/A   Overcast
4:54 AM 57.0 °F 55.9 °F 96% 30.08 in 4.0 mi NW 5.8 mph - N/A   Overcast
5:09 AM 55.9 °F 55.9 °F 100% 30.08 in 2.5 mi NNW 5.8 mph - N/A   Overcast
5:42 AM 55.9 °F 55.9 °F 100% 30.08 in 1.5 mi North 5.8 mph - N/A   Overcast
5:54 AM 55.9 °F 55.9 °F 100% 30.07 in 0.5 mi North 4.6 mph - N/A   Overcast
6:54 AM 55.9 °F 55.9 °F 100% 30.07 in 0.5 mi NNE 4.6 mph - N/A   Overcast
7:54 AM 57.0 °F 57.0 °F 100% 30.06 in 1.5 mi ENE 5.8 mph - N/A   Overcast
8:09 AM 57.9 °F 57.9 °F 100% 30.06 in 1.5 mi ENE 8.1 mph - N/A   Overcast
8:54 AM 60.1 °F 60.1 °F 100% 30.06 in 1.5 mi ENE 5.8 mph - N/A   Overcast
9:02 AM 60.1 °F 60.1 °F 100% 30.06 in 10.0 mi NE 4.6 mph - N/A   Overcast
9:54 AM 62.1 °F 60.1 °F 93% 30.07 in 10.0 mi ENE 6.9 mph - N/A   Overcast
10:54 AM 63.0 °F 60.1 °F 90% 30.05 in 10.0 mi East 6.9 mph - N/A   Overcast
11:40 AM 64.9 °F 59.0 °F 81% 30.04 in 10.0 mi North 3.5 mph - N/A   Overcast
11:54 AM 64.9 °F 59.0 °F 81% 30.04 in 10.0 mi Calm Calm - N/A   Overcast
12:25 PM 66.9 °F 59.0 °F 76% 30.03 in 10.0 mi Variable 3.5 mph - N/A   Overcast
12:54 PM 66.9 °F 59.0 °F 76% 30.01 in 10.0 mi Calm Calm - N/A   Mostly Cloudy
1:54 PM 69.1 °F 60.1 °F 73% 29.99 in 10.0 mi SE 5.8 mph - N/A   Mostly Cloudy
2:33 PM 70.0 °F 60.1 °F 71% 29.99 in 10.0 mi ESE 8.1 mph - N/A   Scattered Clouds
2:54 PM 69.1 °F 60.1 °F 73% 29.99 in 10.0 mi ESE 8.1 mph - N/A   Scattered Clouds
3:54 PM 66.9 °F 60.1 °F 79% 29.99 in 10.0 mi East 6.9 mph - N/A   Partly Cloudy
4:56 PM 64.9 °F 60.1 °F 84% 29.98 in 10.0 mi East 5.8 mph - N/A   Partly Cloudy
5:54 PM 63.0 °F 60.1 °F 90% 29.98 in 10.0 mi East 6.9 mph - N/A   Partly Cloudy
6:01 PM 63.0 °F 60.1 °F 90% 29.97 in 10.0 mi East 5.8 mph - N/A   Mostly Cloudy
6:54 PM 62.1 °F 60.1 °F 93% 29.98 in 10.0 mi SE 4.6 mph - N/A   Overcast
7:54 PM 62.1 °F 60.1 °F 93% 29.98 in 10.0 mi East 3.5 mph - N/A   Overcast
8:54 PM 62.1 °F 60.1 °F 93% 29.98 in 10.0 mi ESE 4.6 mph - N/A   Overcast
9:54 PM 62.1 °F 60.1 °F 93% 29.98 in 10.0 mi SSE 4.6 mph - N/A   Overcast
10:54 PM 62.1 °F 60.1 °F 93% 29.97 in 10.0 mi SSW 4.6 mph - 0.00 in   Overcast
11:54 PM 61.0 °F 60.1 °F 97% 29.95 in 10.0 mi South 4.6 mph - N/A   Overcast